AAL2064 KDFW-KELP

Flight info

Callsign AAL2064
Flight time 1h 28m
Altitude 32000
Route WSTEX2 CIKAN BGS LIFFT SAMMR3
Aircraft B738/M-SDE2E3FGHIRWXY/LB1

Departure

Time 2026-05-05 22:44
Airport Dallas Fort Worth International Airport (KDFW)

Arrival

Time 2026-05-06 00:13
Airport El Paso International Airport (KELP)
Time Latitude Longitude Altitude Speed Heading
2026-05-05 22:10 32.89641 -97.03518 595 ft 0 kts 274°
2026-05-05 22:31 32.89641 -97.03516 586 ft 2 kts 275°
2026-05-05 22:31 32.89635 -97.03492 586 ft 1 kts 287°
2026-05-05 22:32 32.89627 -97.03466 586 ft 4 kts 300°
2026-05-05 22:32 32.89612 -97.03440 586 ft 4 kts 304°
2026-05-05 22:32 32.89607 -97.03432 586 ft 0 kts 302°
2026-05-05 22:35 32.89608 -97.03432 586 ft 0 kts 307°
2026-05-05 22:36 32.89612 -97.03432 586 ft 1 kts 346°
2026-05-05 22:36 32.89616 -97.03428 586 ft 2 kts 36°
2026-05-05 22:36 32.89618 -97.03389 586 ft 8 kts 96°
2026-05-05 22:36 32.89642 -97.03321 585 ft 11 kts 16°
2026-05-05 22:37 32.89721 -97.03318 585 ft 11 kts 357°
2026-05-05 22:37 32.89799 -97.03315 585 ft 11 kts
2026-05-05 22:37 32.89878 -97.03316 585 ft 13 kts 359°
2026-05-05 22:37 32.89972 -97.03317 585 ft 14 kts
2026-05-05 22:38 32.90064 -97.03313 584 ft 13 kts 358°
2026-05-05 22:38 32.90153 -97.03314 584 ft 13 kts
2026-05-05 22:38 32.90256 -97.03313 584 ft 17 kts 360°
2026-05-05 22:38 32.90380 -97.03312 584 ft 19 kts 359°
2026-05-05 22:39 32.90513 -97.03315 584 ft 19 kts 358°
2026-05-05 22:39 32.90643 -97.03310 584 ft 18 kts
2026-05-05 22:39 32.90768 -97.03311 584 ft 18 kts
2026-05-05 22:39 32.90889 -97.03309 585 ft 17 kts 360°
2026-05-05 22:40 32.91003 -97.03293 580 ft 16 kts 23°
2026-05-05 22:40 32.91112 -97.03272 579 ft 16 kts 360°
2026-05-05 22:40 32.91219 -97.03273 580 ft 15 kts 360°
2026-05-05 22:40 32.91322 -97.03273 580 ft 15 kts
2026-05-05 22:41 32.91422 -97.03271 577 ft 15 kts
2026-05-05 22:41 32.91488 -97.03202 576 ft 15 kts 91°
2026-05-05 22:41 32.91486 -97.03078 576 ft 15 kts 89°
2026-05-05 22:41 32.91478 -97.02991 577 ft 6 kts 137°
2026-05-05 22:42 32.91437 -97.02989 577 ft 6 kts 181°
2026-05-05 22:42 32.91428 -97.02989 578 ft 0 kts 178°
2026-05-05 22:43 32.91323 -97.02988 577 ft 44 kts 180°
2026-05-05 22:43 32.90769 -97.02993 576 ft 113 kts 180°
2026-05-05 22:44 32.89774 -97.02999 577 ft 170 kts 182°
2026-05-05 22:44 32.88516 -97.03061 1020 ft 185 kts 182°
2026-05-05 22:44 32.87215 -97.03111 1718 ft 186 kts 184°
2026-05-05 22:44 32.85938 -97.03118 2457 ft 185 kts 183°
2026-05-05 22:45 32.84636 -97.03187 2986 ft 195 kts 193°
2026-05-05 22:45 32.83296 -97.03601 3547 ft 203 kts 199°
2026-05-05 22:45 32.81912 -97.04000 4143 ft 209 kts 194°
2026-05-05 22:45 32.80450 -97.04378 4462 ft 222 kts 204°
2026-05-05 22:46 32.79146 -97.05447 4685 ft 235 kts 223°
2026-05-05 22:46 32.77827 -97.06692 4978 ft 251 kts 219°
2026-05-05 22:46 32.76363 -97.07954 5282 ft 267 kts 217°
2026-05-05 22:46 32.74859 -97.09182 6068 ft 265 kts 216°
2026-05-05 22:47 32.73323 -97.10406 6806 ft 266 kts 216°
2026-05-05 22:47 32.71782 -97.11623 7545 ft 267 kts 216°
2026-05-05 22:47 32.70280 -97.12928 8247 ft 267 kts 229°
2026-05-05 22:47 32.69336 -97.14784 9051 ft 264 kts 250°
2026-05-05 22:48 32.68960 -97.16915 9658 ft 265 kts 264°
2026-05-05 22:48 32.68896 -97.19067 10269 ft 262 kts 266°
2026-05-05 22:48 32.68868 -97.21285 10496 ft 283 kts 266°
2026-05-05 22:48 32.68840 -97.23743 10668 ft 304 kts 267°
2026-05-05 22:49 32.68807 -97.26298 10815 ft 324 kts 267°
2026-05-05 22:49 32.68765 -97.29044 10952 ft 341 kts 266°
2026-05-05 22:49 32.68716 -97.31909 11277 ft 351 kts 266°
2026-05-05 22:49 32.68664 -97.34798 11877 ft 351 kts 266°
2026-05-05 22:50 32.68607 -97.37711 12522 ft 352 kts 265°
2026-05-05 22:50 32.68548 -97.40620 13155 ft 353 kts 265°
2026-05-05 22:50 32.68488 -97.43526 13802 ft 353 kts 265°
2026-05-05 22:50 32.68425 -97.46441 14362 ft 354 kts 265°
2026-05-05 22:51 32.68361 -97.49334 14921 ft 356 kts 265°
2026-05-05 22:51 32.68295 -97.52268 15538 ft 357 kts 265°
2026-05-05 22:51 32.68228 -97.55218 16129 ft 358 kts 265°
2026-05-05 22:51 32.68161 -97.58170 16696 ft 359 kts 265°
2026-05-05 22:52 32.68092 -97.61147 17253 ft 361 kts 265°
2026-05-05 22:52 32.68023 -97.64136 17792 ft 363 kts 265°
2026-05-05 22:52 32.67953 -97.67130 18274 ft 365 kts 265°
2026-05-05 22:52 32.67882 -97.70150 18723 ft 366 kts 265°
2026-05-05 22:53 32.67809 -97.73122 19100 ft 366 kts 265°
2026-05-05 22:53 32.67647 -97.76127 19584 ft 365 kts 263°
2026-05-05 22:53 32.67417 -97.79138 20040 ft 366 kts 262°
2026-05-05 22:53 32.67168 -97.82141 20489 ft 367 kts 263°
2026-05-05 22:54 32.66917 -97.85158 20956 ft 367 kts 263°
2026-05-05 22:54 32.66669 -97.88186 21365 ft 369 kts 263°
2026-05-05 22:54 32.66424 -97.91221 21783 ft 370 kts 263°
2026-05-05 22:54 32.66182 -97.94264 22189 ft 371 kts 263°
2026-05-05 22:55 32.65941 -97.97315 22585 ft 372 kts 263°
2026-05-05 22:55 32.65702 -98.00335 22994 ft 372 kts 263°
2026-05-05 22:55 32.65460 -98.03396 23371 ft 373 kts 263°
2026-05-05 22:55 32.65217 -98.06460 23657 ft 374 kts 263°
2026-05-05 22:56 32.64971 -98.09543 23930 ft 376 kts 263°
2026-05-05 22:56 32.64724 -98.12635 24213 ft 377 kts 263°
2026-05-05 22:56 32.64477 -98.15729 24501 ft 378 kts 263°
2026-05-05 22:56 32.64227 -98.18837 24768 ft 379 kts 263°
2026-05-05 22:57 32.63976 -98.21954 25034 ft 379 kts 263°
2026-05-05 22:57 32.63723 -98.25074 25240 ft 382 kts 263°
2026-05-05 22:57 32.63472 -98.28171 25485 ft 383 kts 263°
2026-05-05 22:57 32.63216 -98.31323 25738 ft 384 kts 263°
2026-05-05 22:58 32.62960 -98.34473 25992 ft 385 kts 263°
2026-05-05 22:58 32.62702 -98.37627 26330 ft 383 kts 263°
2026-05-05 22:58 32.62445 -98.40763 26707 ft 380 kts 263°
2026-05-05 22:58 32.62190 -98.43869 27098 ft 378 kts 263°
2026-05-05 22:59 32.61935 -98.46972 27397 ft 378 kts 263°
2026-05-05 22:59 32.61679 -98.50072 27738 ft 377 kts 263°
2026-05-05 22:59 32.61427 -98.53115 28148 ft 375 kts 263°
2026-05-05 22:59 32.61172 -98.56185 28585 ft 372 kts 263°
2026-05-05 23:00 32.60663 -98.62267 29326 ft 370 kts 262°
2026-05-05 23:00 32.60410 -98.65294 29744 ft 368 kts 262°
2026-05-05 23:00 32.60157 -98.68304 30144 ft 365 kts 262°
2026-05-05 23:01 32.59905 -98.71291 30504 ft 364 kts 262°
2026-05-05 23:01 32.59652 -98.74273 30842 ft 362 kts 262°
2026-05-05 23:01 32.59400 -98.77243 31173 ft 361 kts 262°
2026-05-05 23:01 32.59152 -98.80163 31458 ft 361 kts 262°
2026-05-05 23:02 32.58899 -98.83124 31764 ft 361 kts 262°
2026-05-05 23:02 32.58646 -98.86078 32043 ft 360 kts 262°
2026-05-05 23:02 32.58136 -98.92018 32045 ft 361 kts 262°
2026-05-05 23:03 32.57628 -98.97906 32050 ft 358 kts 262°
2026-05-05 23:03 32.57120 -99.03760 32040 ft 356 kts 262°
2026-05-05 23:04 32.56614 -99.09555 32007 ft 355 kts 262°
2026-05-05 23:04 32.56102 -99.15380 31995 ft 355 kts 262°
2026-05-05 23:05 32.55589 -99.21196 31986 ft 355 kts 262°
2026-05-05 23:05 32.55073 -99.27021 31988 ft 355 kts 262°
2026-05-05 23:06 32.54556 -99.32814 31985 ft 356 kts 262°
2026-05-05 23:06 32.54150 -99.38676 32021 ft 358 kts 263°
2026-05-05 23:07 32.53820 -99.44558 32034 ft 358 kts 263°
2026-05-05 23:07 32.53480 -99.50456 32041 ft 359 kts 263°
2026-05-05 23:08 32.53127 -99.56331 32062 ft 360 kts 263°
2026-05-05 23:08 32.52765 -99.62264 32072 ft 362 kts 263°
2026-05-05 23:09 32.52398 -99.68207 32077 ft 362 kts 263°
2026-05-05 23:09 32.52027 -99.74172 32069 ft 363 kts 263°
2026-05-05 23:10 32.51656 -99.80089 32052 ft 363 kts 263°
2026-05-05 23:10 32.51279 -99.86047 32066 ft 363 kts 262°
2026-05-05 23:11 32.50900 -99.92001 32050 ft 362 kts 262°
2026-05-05 23:11 32.50520 -99.97928 32039 ft 360 kts 262°
2026-05-05 23:12 32.50141 -100.03795 32023 ft 359 kts 262°
2026-05-05 23:12 32.49757 -100.09691 32011 ft 358 kts 262°
2026-05-05 23:13 32.49372 -100.15564 31991 ft 357 kts 262°
2026-05-05 23:13 32.48985 -100.21424 32043 ft 357 kts 262°
2026-05-05 23:14 32.48595 -100.27291 31973 ft 356 kts 262°
2026-05-05 23:14 32.48201 -100.33091 32124 ft 355 kts 261°
2026-05-05 23:15 32.47751 -100.38870 31918 ft 352 kts 261°
2026-05-05 23:15 32.47277 -100.44702 31860 ft 358 kts 261°
2026-05-05 23:16 32.46808 -100.50542 31845 ft 355 kts 261°
2026-05-05 23:16 32.46344 -100.56309 31853 ft 354 kts 261°
2026-05-05 23:17 32.45876 -100.62107 31814 ft 354 kts 261°
2026-05-05 23:17 32.45405 -100.67914 31799 ft 355 kts 261°
2026-05-05 23:18 32.44930 -100.73735 31768 ft 356 kts 261°
2026-05-05 23:18 32.44450 -100.79578 31738 ft 357 kts 261°
2026-05-05 23:19 32.43970 -100.85395 31747 ft 358 kts 261°
2026-05-05 23:19 32.43483 -100.91266 31751 ft 359 kts 261°
2026-05-05 23:20 32.42993 -100.97146 31748 ft 359 kts 261°
2026-05-05 23:20 32.42503 -101.02982 31747 ft 359 kts 261°
2026-05-05 23:21 32.42008 -101.08851 31733 ft 358 kts 261°
2026-05-05 23:21 32.41511 -101.14713 31720 ft 358 kts 261°
2026-05-05 23:22 32.41011 -101.20571 31702 ft 357 kts 261°
2026-05-05 23:22 32.40512 -101.26384 31697 ft 357 kts 261°
2026-05-05 23:23 32.40009 -101.32221 31693 ft 357 kts 260°
2026-05-05 23:23 32.39502 -101.38072 31709 ft 357 kts 260°
2026-05-05 23:24 32.38992 -101.43920 31706 ft 358 kts 260°
2026-05-05 23:24 32.38466 -101.49783 31720 ft 358 kts 259°
2026-05-05 23:25 32.37763 -101.55578 31722 ft 358 kts 258°
2026-05-05 23:25 32.37005 -101.61409 31722 ft 359 kts 258°
2026-05-05 23:26 32.36253 -101.67256 31726 ft 359 kts 258°
2026-05-05 23:26 32.35510 -101.73102 31722 ft 360 kts 258°
2026-05-05 23:27 32.34774 -101.78914 31722 ft 360 kts 258°
2026-05-05 23:27 32.34032 -101.84760 31751 ft 360 kts 258°
2026-05-05 23:28 32.33287 -101.90610 31741 ft 359 kts 258°
2026-05-05 23:28 32.32541 -101.96448 31754 ft 359 kts 258°
2026-05-05 23:29 32.31794 -102.02278 31767 ft 359 kts 258°
2026-05-05 23:29 32.31048 -102.08073 31782 ft 359 kts 257°
2026-05-05 23:30 32.30296 -102.13894 31787 ft 358 kts 257°
2026-05-05 23:30 32.29541 -102.19713 31727 ft 358 kts 258°
2026-05-05 23:31 32.28788 -102.25495 31749 ft 358 kts 258°
2026-05-05 23:31 32.28028 -102.31313 31750 ft 359 kts 258°
2026-05-05 23:32 32.27264 -102.37140 31753 ft 359 kts 258°
2026-05-05 23:32 32.26497 -102.42970 31755 ft 359 kts 257°
2026-05-05 23:33 32.25730 -102.48771 31764 ft 360 kts 257°
2026-05-05 23:33 32.24955 -102.54618 31760 ft 361 kts 257°
2026-05-05 23:34 32.24176 -102.60475 31749 ft 361 kts 257°
2026-05-05 23:34 32.23393 -102.66333 31747 ft 362 kts 257°
2026-05-05 23:35 32.22607 -102.72205 31751 ft 362 kts 257°
2026-05-05 23:35 32.21823 -102.78033 31766 ft 362 kts 257°
2026-05-05 23:36 32.21032 -102.83896 31754 ft 362 kts 257°
2026-05-05 23:36 32.20237 -102.89762 31749 ft 362 kts 257°
2026-05-05 23:37 32.19441 -102.95616 31744 ft 361 kts 256°
2026-05-05 23:37 32.18648 -103.01426 31746 ft 361 kts 256°
2026-05-05 23:38 32.17849 -103.07264 31751 ft 360 kts 256°
2026-05-05 23:38 32.17047 -103.13102 31750 ft 360 kts 256°
2026-05-05 23:39 32.16249 -103.18889 31757 ft 360 kts 256°
2026-05-05 23:39 32.15444 -103.24710 31751 ft 359 kts 256°
2026-05-05 23:40 32.14636 -103.30528 31750 ft 359 kts 256°
2026-05-05 23:40 32.13826 -103.36337 31748 ft 359 kts 256°
2026-05-05 23:41 32.13020 -103.42102 31748 ft 358 kts 256°
2026-05-05 23:41 32.12208 -103.47892 31749 ft 358 kts 256°
2026-05-05 23:42 32.11392 -103.53688 31757 ft 358 kts 256°
2026-05-05 23:42 32.10575 -103.59476 31753 ft 358 kts 256°
2026-05-05 23:43 32.09755 -103.65263 31747 ft 358 kts 256°
2026-05-05 23:43 32.08938 -103.71003 31746 ft 357 kts 256°
2026-05-05 23:44 32.08113 -103.76788 31743 ft 357 kts 256°
2026-05-05 23:44 32.07286 -103.82561 31740 ft 357 kts 256°
2026-05-05 23:45 32.06457 -103.88336 31738 ft 357 kts 256°
2026-05-05 23:45 32.05630 -103.94076 31744 ft 358 kts 256°
2026-05-05 23:46 32.04793 -103.99862 31738 ft 358 kts 256°
2026-05-05 23:46 32.03954 -104.05645 31737 ft 358 kts 256°
2026-05-05 23:47 32.03112 -104.11432 31761 ft 358 kts 256°
2026-05-05 23:47 32.02273 -104.17174 31762 ft 358 kts 256°
2026-05-05 23:48 32.01427 -104.22956 31749 ft 358 kts 255°
2026-05-05 23:48 32.00577 -104.28738 31760 ft 358 kts 255°
2026-05-05 23:49 31.99725 -104.34520 31758 ft 359 kts 255°
2026-05-05 23:49 31.98871 -104.40316 31766 ft 360 kts 256°
2026-05-05 23:50 31.98262 -104.46149 31763 ft 362 kts 258°
2026-05-05 23:50 31.97696 -104.52007 31757 ft 352 kts 258°
2026-05-05 23:51 31.97414 -104.54841 31459 ft 344 kts 257°
2026-05-05 23:51 31.97134 -104.57605 31074 ft 337 kts 257°
2026-05-05 23:51 31.96857 -104.60318 30698 ft 332 kts 257°
2026-05-05 23:51 31.96581 -104.63007 30265 ft 328 kts 257°
2026-05-05 23:52 31.96307 -104.65661 29831 ft 326 kts 257°
2026-05-05 23:52 31.96030 -104.68327 29321 ft 330 kts 257°
2026-05-05 23:52 31.95754 -104.70982 28831 ft 331 kts 257°
2026-05-05 23:52 31.95477 -104.73660 28351 ft 328 kts 257°
2026-05-05 23:53 31.95205 -104.76307 27884 ft 324 kts 258°
2026-05-05 23:53 31.94933 -104.78930 27462 ft 323 kts 257°
2026-05-05 23:53 31.94659 -104.81556 26946 ft 325 kts 258°
2026-05-05 23:53 31.94387 -104.84179 26528 ft 319 kts 258°
2026-05-05 23:54 31.94120 -104.86758 26090 ft 316 kts 258°
2026-05-05 23:54 31.93852 -104.89317 25682 ft 314 kts 258°
2026-05-05 23:54 31.93584 -104.91872 25235 ft 315 kts 258°
2026-05-05 23:54 31.93319 -104.94395 24820 ft 315 kts 258°
2026-05-05 23:55 31.93052 -104.96946 24376 ft 313 kts 258°
2026-05-05 23:55 31.92786 -104.99482 23937 ft 311 kts 259°
2026-05-05 23:55 31.92521 -105.01997 23501 ft 310 kts 259°
2026-05-05 23:55 31.92257 -105.04502 23034 ft 307 kts 259°
2026-05-05 23:56 31.91994 -105.06990 22572 ft 305 kts 259°
2026-05-05 23:56 31.91733 -105.09457 22126 ft 302 kts 259°
2026-05-05 23:56 31.91474 -105.11903 21703 ft 300 kts 259°
2026-05-05 23:56 31.91218 -105.14308 21296 ft 300 kts 259°
2026-05-05 23:57 31.90959 -105.16740 20887 ft 300 kts 259°
2026-05-05 23:57 31.90698 -105.19185 20481 ft 304 kts 259°
2026-05-05 23:57 31.90432 -105.21662 20065 ft 305 kts 259°
2026-05-05 23:57 31.90169 -105.24132 19650 ft 303 kts 259°
2026-05-05 23:58 31.89906 -105.26583 19245 ft 301 kts 259°
2026-05-05 23:58 31.89646 -105.29016 18840 ft 299 kts 259°
2026-05-05 23:58 31.89385 -105.31445 18424 ft 299 kts 259°
2026-05-05 23:58 31.89126 -105.33841 18006 ft 300 kts 259°
2026-05-05 23:59 31.88863 -105.36279 17554 ft 301 kts 259°
2026-05-05 23:59 31.88598 -105.38729 17150 ft 301 kts 259°
2026-05-05 23:59 31.88336 -105.41161 16764 ft 298 kts 259°
2026-05-05 23:59 31.88075 -105.43570 16372 ft 295 kts 260°
2026-05-06 00:00 31.87817 -105.45955 15979 ft 294 kts 260°
2026-05-06 00:00 31.87566 -105.48349 15597 ft 295 kts 261°
2026-05-06 00:00 31.87460 -105.50780 15152 ft 299 kts 265°
2026-05-06 00:00 31.87454 -105.53218 14753 ft 297 kts 266°
2026-05-06 00:01 31.87465 -105.55641 14366 ft 296 kts 266°
2026-05-06 00:01 31.87474 -105.58024 13985 ft 295 kts 266°
2026-05-06 00:01 31.87475 -105.60436 13599 ft 294 kts 266°
2026-05-06 00:01 31.87471 -105.62842 13177 ft 293 kts 266°
2026-05-06 00:02 31.87462 -105.65235 12780 ft 292 kts 266°
2026-05-06 00:02 31.87451 -105.67619 12383 ft 290 kts 266°
2026-05-06 00:02 31.87438 -105.69983 12012 ft 288 kts 266°
2026-05-06 00:02 31.87423 -105.72337 11645 ft 287 kts 267°
2026-05-06 00:03 31.87407 -105.74686 11276 ft 289 kts 267°
2026-05-06 00:03 31.87390 -105.77061 10900 ft 291 kts 267°
2026-05-06 00:03 31.87374 -105.79412 10523 ft 291 kts 267°
2026-05-06 00:03 31.87357 -105.81759 10335 ft 283 kts 267°
2026-05-06 00:04 31.87341 -105.84045 10187 ft 274 kts 267°
2026-05-06 00:04 31.87325 -105.86256 10056 ft 266 kts 267°
2026-05-06 00:04 31.87309 -105.88393 9937 ft 257 kts 267°
2026-05-06 00:04 31.87291 -105.90458 9830 ft 249 kts 266°
2026-05-06 00:05 31.87162 -105.94491 9460 ft 247 kts 265°
2026-05-06 00:05 31.87086 -105.96490 9291 ft 248 kts 265°
2026-05-06 00:05 31.87011 -105.98525 9124 ft 250 kts 265°
2026-05-06 00:06 31.86935 -106.00579 8918 ft 252 kts 265°
2026-05-06 00:06 31.86859 -106.02646 8749 ft 253 kts 265°
2026-05-06 00:06 31.86786 -106.04683 8546 ft 244 kts 265°
2026-05-06 00:06 31.86716 -106.06631 8381 ft 233 kts 265°
2026-05-06 00:07 31.86648 -106.08501 8220 ft 224 kts 265°
2026-05-06 00:07 31.86584 -106.10265 8197 ft 215 kts 265°
2026-05-06 00:07 31.86517 -106.12067 7951 ft 225 kts 265°
2026-05-06 00:07 31.86516 -106.13932 7680 ft 228 kts 269°
2026-05-06 00:08 31.86572 -106.15778 7407 ft 223 kts 269°
2026-05-06 00:08 31.86626 -106.17586 7141 ft 218 kts 269°
2026-05-06 00:08 31.86676 -106.19339 6903 ft 210 kts 269°
2026-05-06 00:08 31.86722 -106.21020 6666 ft 201 kts 269°
2026-05-06 00:09 31.86765 -106.22625 6448 ft 190 kts 269°
2026-05-06 00:09 31.86804 -106.24137 6234 ft 180 kts 269°
2026-05-06 00:09 31.86840 -106.25555 6044 ft 173 kts 268°
2026-05-06 00:09 31.86874 -106.26951 5842 ft 167 kts 268°
2026-05-06 00:10 31.86908 -106.28264 5678 ft 153 kts 268°
2026-05-06 00:10 31.86878 -106.29470 5534 ft 146 kts 261°
2026-05-06 00:10 31.86615 -106.30607 5383 ft 143 kts 247°
2026-05-06 00:10 31.86092 -106.31626 5217 ft 148 kts 236°
2026-05-06 00:11 31.85440 -106.32589 5057 ft 151 kts 235°
2026-05-06 00:11 31.84766 -106.33535 4842 ft 148 kts 236°
2026-05-06 00:11 31.84113 -106.34451 4633 ft 151 kts 237°
2026-05-06 00:11 31.83432 -106.35424 4398 ft 157 kts 234°
2026-05-06 00:12 31.82707 -106.36414 4139 ft 158 kts 233°
2026-05-06 00:12 31.82024 -106.37367 3966 ft 146 kts 237°
2026-05-06 00:12 31.81433 -106.38211 3946 ft 118 kts 226°
2026-05-06 00:12 31.80980 -106.38836 3948 ft 83 kts 230°
2026-05-06 00:13 31.80688 -106.39246 3947 ft 48 kts 231°
2026-05-06 00:13 31.80518 -106.39482 3948 ft 34 kts 230°
2026-05-06 00:13 31.80379 -106.39676 3948 ft 30 kts 230°
2026-05-06 00:13 31.80261 -106.39838 3947 ft 22 kts 230°
2026-05-06 00:14 31.80175 -106.39936 3946 ft 15 kts 197°
2026-05-06 00:14 31.80095 -106.39883 3946 ft 12 kts 122°
2026-05-06 00:14 31.80099 -106.39828 3946 ft 6 kts 54°
2026-05-06 00:14 31.80110 -106.39811 3946 ft 2 kts 58°
2026-05-06 00:15 31.80115 -106.39799 3946 ft 2 kts 57°
2026-05-06 00:15 31.80129 -106.39782 3946 ft 4 kts 45°
2026-05-06 00:15 31.80147 -106.39752 3946 ft 5 kts 65°
2026-05-06 00:15 31.80155 -106.39710 3946 ft 6 kts 88°
2026-05-06 00:16 31.80153 -106.39661 3946 ft 6 kts 94°
2026-05-06 00:16 31.80144 -106.39618 3946 ft 5 kts 140°
2026-05-06 00:16 31.80115 -106.39630 3946 ft 3 kts 207°
2026-05-06 00:16 31.80104 -106.39638 3946 ft 0 kts 211°